Regional Weather Roundup
Issued by NWS Jackson, KY

Home | Current Version | Previous Version | Text Only | Print | Product List | Glossary On
Versions: 1 2 3 4 5 6 7 8 9 10 11 12 13 14 15 16 17 18 19 20 21 22 23 24 25 26 27 28 29 30 31 32 33 34 35 36 37 38 39 40 41 42 43 44 45 46 47 48 49 50
000
ASUS43 KJKL 052310
RWRJKL

EAST KENTUCKY HOURLY WEATHER ROUNDUP
NATIONAL WEATHER SERVICE JACKSON KY
700 PM EDT SUN JUL 05 2015

NOTE: "FAIR" INDICATES FEW OR NO CLOUDS BELOW 12,000 FEET WITH
NO SIGNIFICANT WEATHER AND/OR OBSTRUCTIONS TO VISIBILITY.

* THESE REPORTS ARE NOT UNDER NWS QUALITY CONTROL AND MAY NOT
  REPORT WEATHER SUCH AS PRECIPITATION AND FOG.

KYZ079-080-083-085-087-088-110-112-115-119-120-060000
...EASTERN KENTUCKY...

CITY           SKY/WX    TMP DP  RH WIND       PRES   REMARKS
JACKSON        CLOUDY    70  66  87 CALM      30.07R
LONDON         CLOUDY    76  64  66 N6        30.06F
SOMERSET*      PTSUNNY   72  70  94 CALM      30.08S
MONTICELLO*    PTSUNNY   72  72 100 CALM      30.10S FOG
MIDDLESBORO*   CLOUDY    71  69  94 W6        30.06S FOG
HARLAN APT*      N/A     73  64  73 W5        30.05R
HAZARD APT*    CLOUDY    73  70  88 CALM      30.07R
BLACK MTN*       N/A     66  63  88 S5          N/A
PIKEVILLE APT* MOSUNNY   73  70  88 CALM      30.07R
BIG SANDY*     PTCLDY    76  69  80 CALM      30.06R
MOREHEAD APT*  CLOUDY    72  68  88 CALM      30.08S
$$

KYZ035-036-041-042-044-050-067-078-099-060000
...CENTRAL KENTUCKY...

CITY           SKY/WX    TMP DP  RH WIND       PRES   REMARKS
MT STERLING*   CLOUDY    73  68  83 NE5       30.08S
FLEMING/MASON* CLOUDY    73  68  83 NE6       30.07S
DANVILLE*      PTSUNNY   75  68  78 N5        30.07F
RICHMOND*      PTSUNNY   73  66  78 CALM      30.06F
LEXINGTON      PTSUNNY   77  66  68 N7        30.06F
FRANKFORT      PTSUNNY   77  67  71 NW5       30.05F
$$

KYZ091>093-OHZ055-061-077-WVZ005-015-034-035-042-060000
...SOUTHERN OHIO/WEST VIRGINIA...

CITY           SKY/WX    TMP DP  RH WIND       PRES   REMARKS
COVINGTON      CLOUDY    78  61  55 N6        30.07F
COLUMBUS       CLOUDY    76  63  64 N6        30.06F
DAYTON         CLOUDY    76  63  64 NE5       30.09S
WILMINGTON     CLOUDY    76  61  59 CALM      30.07F
HUNTINGTON     CLOUDY    76  71  85 NW7       30.02F
CHARLESTON     CLOUDY    71  66  84 NE3       30.04F
PINEVILLE*     LGT RAIN  67  67 100 MISG      30.14R
BECKLEY        TSTM      63  58  83 SE10      30.15R VSB 1/2
BLUEFIELD      CLOUDY    70  61  73 N8        30.14R THUNDER
$$

VAZ002-007-008-TNZ017-027-036-066-071-060000
...SOUTHWEST VIRGINIA/EAST TENNESSEE...

CITY           SKY/WX    TMP DP  RH WIND       PRES   REMARKS
WISE*          PTSUNNY   79  61  53 SW6       30.11S
JONESVILLE*      N/A    N/A N/A N/A MISG        N/A
ABINGDON*      LGT RAIN  69  68  96 SW5       30.09S
BRISTOL        CLOUDY    72  69  90 S5        30.07S
KNOXVILLE      CLOUDY    72  66  81 SW13      30.07R
OAK RIDGE      CLOUDY    75  68  78 CALM      30.08S
CROSSVILLE     MOSUNNY   76  63  64 W10       30.12S
NASHVILLE      PTSUNNY   83  69  62 W3        30.05S
$$

...KEY TO REMARKS...
VSB - VISIBILITY IN MILES
WCI - WIND CHILL INDEX
HX  - HEAT INDEX

$$


USA.gov is the U.S. government's official web portal to all federal, state and local government web resources and services.